Year,Month,Day,Hour,Minute,Value (Times are PST for temperature in C)
2017,08,22,00,00,19.90
2017,08,22,00,01,19.90
2017,08,22,00,02,19.90
2017,08,22,00,03,19.90
2017,08,22,00,04,19.90
2017,08,22,00,05,19.80
2017,08,22,00,06,19.80
2017,08,22,00,07,19.80
2017,08,22,00,08,19.80
2017,08,22,00,09,19.80
2017,08,22,00,10,19.70
2017,08,22,00,11,19.70
2017,08,22,00,12,19.70
2017,08,22,00,13,19.60
2017,08,22,00,14,19.60
2017,08,22,00,15,19.50
2017,08,22,00,16,19.50
2017,08,22,00,17,19.40
2017,08,22,00,18,19.40
2017,08,22,00,19,19.40
2017,08,22,00,20,19.30
2017,08,22,00,21,19.30
2017,08,22,00,22,19.20
2017,08,22,00,23,19.20
2017,08,22,00,24,19.20
2017,08,22,00,25,19.10
2017,08,22,00,26,19.10
2017,08,22,00,27,19.00
2017,08,22,00,28,19.00
2017,08,22,00,29,19.00
2017,08,22,00,30,18.90
2017,08,22,00,31,18.90
2017,08,22,00,32,18.90
2017,08,22,00,33,18.90
2017,08,22,00,34,18.90
2017,08,22,00,35,18.90
2017,08,22,00,36,18.90
2017,08,22,00,37,18.90
2017,08,22,00,38,18.80
2017,08,22,00,39,18.80
2017,08,22,00,40,18.80
2017,08,22,00,41,18.80
2017,08,22,00,42,18.80
2017,08,22,00,43,18.80
2017,08,22,00,44,18.80
2017,08,22,00,45,18.80
2017,08,22,00,46,18.80
2017,08,22,00,47,18.80
2017,08,22,00,48,18.80
2017,08,22,00,49,18.80
2017,08,22,00,50,18.80
2017,08,22,00,51,18.80
2017,08,22,00,52,18.80
2017,08,22,00,53,18.80
2017,08,22,00,54,18.80
2017,08,22,00,55,18.80
2017,08,22,00,56,18.80
2017,08,22,00,57,18.70
2017,08,22,00,58,18.70
2017,08,22,00,59,18.70
2017,08,22,01,00,18.70
2017,08,22,01,01,18.70
2017,08,22,01,02,18.70
2017,08,22,01,03,18.70
2017,08,22,01,04,18.80
2017,08,22,01,05,18.80
2017,08,22,01,06,18.90
2017,08,22,01,07,19.00
2017,08,22,01,08,19.20
2017,08,22,01,09,19.30
2017,08,22,01,10,19.50
2017,08,22,01,11,19.60
2017,08,22,01,12,19.70
2017,08,22,01,13,19.80
2017,08,22,01,14,19.90
2017,08,22,01,15,19.90
2017,08,22,01,16,20.00
2017,08,22,01,17,20.00
2017,08,22,01,18,20.00
2017,08,22,01,19,20.00
2017,08,22,01,20,20.00
2017,08,22,01,21,20.00
2017,08,22,01,22,20.00
2017,08,22,01,23,19.90
2017,08,22,01,24,19.90
2017,08,22,01,25,19.90
2017,08,22,01,26,19.90
2017,08,22,01,27,19.90
2017,08,22,01,28,19.80
2017,08,22,01,29,19.80
2017,08,22,01,30,19.90
2017,08,22,01,31,19.90
2017,08,22,01,32,20.00
2017,08,22,01,33,20.10
2017,08,22,01,34,20.20
2017,08,22,01,35,20.30
2017,08,22,01,36,20.40
2017,08,22,01,37,20.50
2017,08,22,01,38,20.60
2017,08,22,01,39,20.70
2017,08,22,01,40,20.80
2017,08,22,01,41,20.80
2017,08,22,01,42,20.80
2017,08,22,01,43,20.90
2017,08,22,01,44,20.90
2017,08,22,01,45,20.90
2017,08,22,01,46,20.90
2017,08,22,01,47,20.90
2017,08,22,01,48,20.90
2017,08,22,01,49,20.90
2017,08,22,01,50,20.90
2017,08,22,01,51,20.90
2017,08,22,01,52,20.90
2017,08,22,01,53,20.90
2017,08,22,01,54,20.90
2017,08,22,01,55,20.90
2017,08,22,01,56,20.90
2017,08,22,01,57,20.90
2017,08,22,01,58,20.90
2017,08,22,01,59,20.90
2017,08,22,02,00,20.90
2017,08,22,02,01,20.90
2017,08,22,02,02,20.90
2017,08,22,02,03,20.90
2017,08,22,02,04,21.00
2017,08,22,02,05,21.00
2017,08,22,02,06,21.00
2017,08,22,02,07,21.00
2017,08,22,02,08,21.00
2017,08,22,02,09,21.00
2017,08,22,02,10,21.00
2017,08,22,02,11,21.00
2017,08,22,02,12,21.00
2017,08,22,02,13,21.00
2017,08,22,02,14,21.00
2017,08,22,02,15,21.00
2017,08,22,02,16,20.90
2017,08,22,02,17,20.90
2017,08,22,02,18,20.90
2017,08,22,02,19,20.80
2017,08,22,02,20,20.80
2017,08,22,02,21,20.80
2017,08,22,02,22,20.80
2017,08,22,02,23,20.70
2017,08,22,02,24,20.70
2017,08,22,02,25,20.70
2017,08,22,02,26,20.60
2017,08,22,02,27,20.60
2017,08,22,02,28,20.60
2017,08,22,02,29,20.60
2017,08,22,02,30,20.50
2017,08,22,02,31,20.50
2017,08,22,02,32,20.40
2017,08,22,02,33,20.40
2017,08,22,02,34,20.30
2017,08,22,02,35,20.30
2017,08,22,02,36,20.30
2017,08,22,02,37,20.20
2017,08,22,02,38,20.20
2017,08,22,02,39,20.20
2017,08,22,02,40,20.10
2017,08,22,02,41,20.10
2017,08,22,02,42,20.00
2017,08,22,02,43,19.90
2017,08,22,02,44,19.80
2017,08,22,02,45,19.80
2017,08,22,02,46,19.70
2017,08,22,02,47,19.70
2017,08,22,02,48,19.60
2017,08,22,02,49,19.50
2017,08,22,02,50,19.40
2017,08,22,02,51,19.40
2017,08,22,02,52,19.40
2017,08,22,02,53,19.50
2017,08,22,02,54,19.50
2017,08,22,02,55,19.50
2017,08,22,02,56,19.40
2017,08,22,02,57,19.40
2017,08,22,02,58,19.30
2017,08,22,02,59,19.30
2017,08,22,03,00,19.20
2017,08,22,03,01,19.20
2017,08,22,03,02,19.20
2017,08,22,03,03,19.20
2017,08,22,03,04,19.20
2017,08,22,03,05,19.10
2017,08,22,03,06,19.10
2017,08,22,03,07,19.10
2017,08,22,03,08,19.00
2017,08,22,03,09,19.00
2017,08,22,03,10,18.90
2017,08,22,03,11,18.80
2017,08,22,03,12,18.80
2017,08,22,03,13,18.70
2017,08,22,03,14,18.70
2017,08,22,03,15,18.60
2017,08,22,03,16,18.50
2017,08,22,03,17,18.50
2017,08,22,03,18,18.40
2017,08,22,03,19,18.40
2017,08,22,03,20,18.40
2017,08,22,03,21,18.30
2017,08,22,03,22,18.30
2017,08,22,03,23,18.30
2017,08,22,03,24,18.30
2017,08,22,03,25,18.30
2017,08,22,03,26,18.30
2017,08,22,03,27,18.30
2017,08,22,03,28,18.30
2017,08,22,03,29,18.30
2017,08,22,03,30,18.30
2017,08,22,03,31,18.30
2017,08,22,03,32,18.30
2017,08,22,03,33,18.20
2017,08,22,03,34,18.20
2017,08,22,03,35,18.20
2017,08,22,03,36,18.20
2017,08,22,03,37,18.20
2017,08,22,03,38,18.20
2017,08,22,03,39,18.30
2017,08,22,03,40,18.30
2017,08,22,03,41,18.30
2017,08,22,03,42,18.30
2017,08,22,03,43,18.30
2017,08,22,03,44,18.30
2017,08,22,03,45,18.30
2017,08,22,03,46,18.30
2017,08,22,03,47,18.30
2017,08,22,03,48,18.30
2017,08,22,03,49,18.30
2017,08,22,03,50,18.30
2017,08,22,03,51,18.30
2017,08,22,03,52,18.30
2017,08,22,03,53,18.30
2017,08,22,03,54,18.30
2017,08,22,03,55,18.30
2017,08,22,03,56,18.20
2017,08,22,03,57,18.20
2017,08,22,03,58,18.20
2017,08,22,03,59,18.10
2017,08,22,04,00,18.10
2017,08,22,04,01,18.10
2017,08,22,04,02,18.10
2017,08,22,04,03,18.10
2017,08,22,04,04,18.10
2017,08,22,04,05,18.10
2017,08,22,04,06,18.10
2017,08,22,04,07,18.10
2017,08,22,04,08,18.00
2017,08,22,04,09,18.00
2017,08,22,04,10,17.90
2017,08,22,04,11,17.90
2017,08,22,04,12,17.80
2017,08,22,04,13,17.80
2017,08,22,04,14,17.80
2017,08,22,04,15,17.80
2017,08,22,04,16,17.80
2017,08,22,04,17,17.80
2017,08,22,04,18,17.80
2017,08,22,04,19,17.80
2017,08,22,04,20,17.80
2017,08,22,04,21,17.80
2017,08,22,04,22,17.70
2017,08,22,04,23,17.70
2017,08,22,04,24,17.70
2017,08,22,04,25,17.80
2017,08,22,04,26,17.80
2017,08,22,04,27,17.80
2017,08,22,04,28,17.90
2017,08,22,04,29,17.90
2017,08,22,04,30,18.00
2017,08,22,04,31,18.10
2017,08,22,04,32,18.10
2017,08,22,04,33,18.10
2017,08,22,04,34,18.20
2017,08,22,04,35,18.20
2017,08,22,04,36,18.20
2017,08,22,04,37,18.20
2017,08,22,04,38,18.20
2017,08,22,04,39,18.20
2017,08,22,04,40,18.20
2017,08,22,04,41,18.20
2017,08,22,04,42,18.20
2017,08,22,04,43,18.20
2017,08,22,04,44,18.20
2017,08,22,04,45,18.20
2017,08,22,04,46,18.20
2017,08,22,04,47,18.20
2017,08,22,04,48,18.30
2017,08,22,04,49,18.30
2017,08,22,04,50,18.30
2017,08,22,04,51,18.30
2017,08,22,04,52,18.30
2017,08,22,04,53,18.40
2017,08,22,04,54,18.40
2017,08,22,04,55,18.40
2017,08,22,04,56,18.40
2017,08,22,04,57,18.40
2017,08,22,04,58,18.40
2017,08,22,04,59,18.40
2017,08,22,05,00,18.40
2017,08,22,05,01,18.40
2017,08,22,05,02,18.40
2017,08,22,05,03,18.50
2017,08,22,05,04,18.50
2017,08,22,05,05,18.50
2017,08,22,05,06,18.50
2017,08,22,05,07,18.50
2017,08,22,05,08,18.50
2017,08,22,05,09,18.50
2017,08,22,05,10,18.60
2017,08,22,05,11,18.60
2017,08,22,05,12,18.60
2017,08,22,05,13,18.60
2017,08,22,05,14,18.60
2017,08,22,05,15,18.60
2017,08,22,05,16,18.60
2017,08,22,05,17,18.60
2017,08,22,05,18,18.60
2017,08,22,05,19,18.50
2017,08,22,05,20,18.40
2017,08,22,05,21,18.40
2017,08,22,05,22,18.40
2017,08,22,05,23,18.40
2017,08,22,05,24,18.30
2017,08,22,05,25,18.30
2017,08,22,05,26,18.30
2017,08,22,05,27,18.30
2017,08,22,05,28,18.20
2017,08,22,05,29,18.20
2017,08,22,05,30,18.10
2017,08,22,05,31,18.00
2017,08,22,05,32,17.90
2017,08,22,05,33,17.90
2017,08,22,05,34,17.80
2017,08,22,05,35,17.80
2017,08,22,05,36,17.80
2017,08,22,05,37,17.80
2017,08,22,05,38,17.80
2017,08,22,05,39,17.80
2017,08,22,05,40,17.80
2017,08,22,05,41,17.80
2017,08,22,05,42,17.80
2017,08,22,05,43,17.70
2017,08,22,05,44,17.70
2017,08,22,05,45,17.70
2017,08,22,05,46,17.70
2017,08,22,05,47,17.70
2017,08,22,05,48,17.70
2017,08,22,05,49,17.70
2017,08,22,05,50,17.70
2017,08,22,05,51,17.80
2017,08,22,05,52,17.70
2017,08,22,05,53,17.80
2017,08,22,05,54,17.80
2017,08,22,05,55,17.70
2017,08,22,05,56,17.70
2017,08,22,05,57,17.70
2017,08,22,05,58,17.70
2017,08,22,05,59,17.70
2017,08,22,06,00,17.70
2017,08,22,06,01,17.70
2017,08,22,06,02,17.70
2017,08,22,06,03,17.70
2017,08,22,06,04,17.70
2017,08,22,06,05,17.70
2017,08,22,06,06,17.70
2017,08,22,06,07,17.70
2017,08,22,06,08,17.70
2017,08,22,06,09,17.70
2017,08,22,06,10,17.70
2017,08,22,06,11,17.70
2017,08,22,06,12,17.60
2017,08,22,06,13,17.60
2017,08,22,06,14,17.60
2017,08,22,06,15,17.60
2017,08,22,06,16,17.60
2017,08,22,06,17,17.60
2017,08,22,06,18,17.70
2017,08,22,06,19,17.60
2017,08,22,06,20,17.60
2017,08,22,06,21,17.60
2017,08,22,06,22,17.60
2017,08,22,06,23,17.50
2017,08,22,06,24,17.50
2017,08,22,06,25,17.40
2017,08,22,06,26,17.40
2017,08,22,06,27,17.40
2017,08,22,06,28,17.30
2017,08,22,06,29,17.30
2017,08,22,06,30,17.40
2017,08,22,06,31,17.40
2017,08,22,06,32,17.40
2017,08,22,06,33,17.40
2017,08,22,06,34,17.40
2017,08,22,06,35,17.50
2017,08,22,06,36,17.50
2017,08,22,06,37,17.50
2017,08,22,06,38,17.60
2017,08,22,06,39,17.60
2017,08,22,06,40,17.60
2017,08,22,06,41,17.70
2017,08,22,06,42,17.70
2017,08,22,06,43,17.70
2017,08,22,06,44,17.60
2017,08,22,06,45,17.60
2017,08,22,06,46,17.60
2017,08,22,06,47,17.60
2017,08,22,06,48,17.60
2017,08,22,06,49,17.50
2017,08,22,06,50,17.50
2017,08,22,06,51,17.40
2017,08,22,06,52,17.40
2017,08,22,06,53,17.40
2017,08,22,06,54,17.30
2017,08,22,06,55,17.30
2017,08,22,06,56,17.30
2017,08,22,06,57,17.20
2017,08,22,06,58,17.20
2017,08,22,06,59,17.20
2017,08,22,07,00,17.20
2017,08,22,07,01,17.20
2017,08,22,07,02,17.20
2017,08,22,07,03,17.20
2017,08,22,07,04,17.20
2017,08,22,07,05,17.20
2017,08,22,07,06,17.20
2017,08,22,07,07,17.20
2017,08,22,07,08,17.20
2017,08,22,07,09,17.20
2017,08,22,07,10,17.20
2017,08,22,07,11,17.30
2017,08,22,07,12,17.30
2017,08,22,07,13,17.30
2017,08,22,07,14,17.30
2017,08,22,07,15,17.30
2017,08,22,07,16,17.40
2017,08,22,07,17,17.40
2017,08,22,07,18,17.50
2017,08,22,07,19,17.50
2017,08,22,07,20,17.50
2017,08,22,07,21,17.60
2017,08,22,07,22,17.60
2017,08,22,07,23,17.70
2017,08,22,07,24,17.70
2017,08,22,07,25,17.80
2017,08,22,07,26,17.80
2017,08,22,07,27,17.90
2017,08,22,07,28,18.00
2017,08,22,07,29,18.10
2017,08,22,07,30,18.20
2017,08,22,07,31,18.30
2017,08,22,07,32,18.40
2017,08,22,07,33,18.60
2017,08,22,07,34,18.70
2017,08,22,07,35,18.80
2017,08,22,07,36,18.90
2017,08,22,07,37,19.00
2017,08,22,07,38,19.00
2017,08,22,07,39,19.10
2017,08,22,07,40,19.20
2017,08,22,07,41,19.30
2017,08,22,07,42,19.40
2017,08,22,07,43,19.50
2017,08,22,07,44,19.60
2017,08,22,07,45,19.60
2017,08,22,07,46,19.70
2017,08,22,07,47,19.80
2017,08,22,07,48,19.80
2017,08,22,07,49,19.90
2017,08,22,07,50,20.00
2017,08,22,07,51,20.00
2017,08,22,07,52,20.10
2017,08,22,07,53,20.10
2017,08,22,07,54,20.20
2017,08,22,07,55,20.20
2017,08,22,07,56,20.30
2017,08,22,07,57,20.30
2017,08,22,07,58,20.30
2017,08,22,07,59,20.40
2017,08,22,08,00,20.40
2017,08,22,08,01,20.50
2017,08,22,08,02,20.60
2017,08,22,08,03,20.60
2017,08,22,08,04,20.70
2017,08,22,08,05,20.80
2017,08,22,08,06,20.80
2017,08,22,08,07,20.80
2017,08,22,08,08,20.90
2017,08,22,08,09,20.90
2017,08,22,08,10,20.90
2017,08,22,08,11,21.00
2017,08,22,08,12,21.00
2017,08,22,08,13,21.00
2017,08,22,08,14,21.00
2017,08,22,08,15,21.10
2017,08,22,08,16,21.10
2017,08,22,08,17,21.00
2017,08,22,08,18,21.00
2017,08,22,08,19,21.00
2017,08,22,08,20,20.90
2017,08,22,08,21,20.90
2017,08,22,08,22,20.90
2017,08,22,08,23,20.90
2017,08,22,08,24,21.00
2017,08,22,08,25,21.00
2017,08,22,08,26,21.10
2017,08,22,08,27,21.10
2017,08,22,08,28,21.20
2017,08,22,08,29,21.20
2017,08,22,08,30,21.20
2017,08,22,08,31,21.20
2017,08,22,08,32,21.20
2017,08,22,08,33,21.20
2017,08,22,08,34,21.30
2017,08,22,08,35,21.30
2017,08,22,08,36,21.30
2017,08,22,08,37,21.30
2017,08,22,08,38,21.30
2017,08,22,08,39,21.30
2017,08,22,08,40,21.30
2017,08,22,08,41,21.40
2017,08,22,08,42,21.40
2017,08,22,08,43,21.40
2017,08,22,08,44,21.40
2017,08,22,08,45,21.40
2017,08,22,08,46,21.40
2017,08,22,08,47,21.50
2017,08,22,08,48,21.50
2017,08,22,08,49,21.50
2017,08,22,08,50,21.50
2017,08,22,08,51,21.50
2017,08,22,08,52,21.60
2017,08,22,08,53,21.60
2017,08,22,08,54,21.60
2017,08,22,08,55,21.60
2017,08,22,08,56,21.60
2017,08,22,08,57,21.70
2017,08,22,08,58,21.70
2017,08,22,08,59,21.80
2017,08,22,09,00,21.80
2017,08,22,09,01,21.80
2017,08,22,09,02,21.80
2017,08,22,09,03,21.90
2017,08,22,09,04,21.90
2017,08,22,09,05,21.90
2017,08,22,09,06,21.90
2017,08,22,09,07,21.90
2017,08,22,09,08,21.90
2017,08,22,09,09,22.00
2017,08,22,09,10,22.00
2017,08,22,09,11,22.00
2017,08,22,09,12,22.00
2017,08,22,09,13,21.90
2017,08,22,09,14,21.80
2017,08,22,09,15,21.80
2017,08,22,09,16,21.70
2017,08,22,09,17,21.70
2017,08,22,09,18,21.70
2017,08,22,09,19,21.70
2017,08,22,09,20,21.80
2017,08,22,09,21,21.80
2017,08,22,09,22,21.80
2017,08,22,09,23,21.80
2017,08,22,09,24,21.70
2017,08,22,09,25,21.70
2017,08,22,09,26,21.70
2017,08,22,09,27,21.60
2017,08,22,09,28,21.60
2017,08,22,09,29,21.60
2017,08,22,09,30,21.60
2017,08,22,09,31,21.60
2017,08,22,09,32,21.60
2017,08,22,09,33,21.70
2017,08,22,09,34,21.70
2017,08,22,09,35,21.70
2017,08,22,09,36,21.60
2017,08,22,09,37,21.60
2017,08,22,09,38,21.50
2017,08,22,09,39,21.50
2017,08,22,09,40,21.50
2017,08,22,09,41,21.40
2017,08,22,09,42,21.40
2017,08,22,09,43,21.50
2017,08,22,09,44,21.50
2017,08,22,09,45,21.60
2017,08,22,09,46,21.60
2017,08,22,09,47,21.70
2017,08,22,09,48,21.80
2017,08,22,09,49,21.80
2017,08,22,09,50,21.90
2017,08,22,09,51,21.90
2017,08,22,09,52,21.80
2017,08,22,09,53,21.80
2017,08,22,09,54,21.80
2017,08,22,09,55,21.80
2017,08,22,09,56,21.90
2017,08,22,09,57,21.90
2017,08,22,09,58,21.90
2017,08,22,09,59,21.90
2017,08,22,10,00,22.00
2017,08,22,10,01,22.00
2017,08,22,10,02,22.10
2017,08,22,10,03,22.10
2017,08,22,10,04,22.10
2017,08,22,10,05,22.10
2017,08,22,10,06,22.20
2017,08,22,10,07,22.30
2017,08,22,10,08,22.30
2017,08,22,10,09,22.40
2017,08,22,10,10,22.40
2017,08,22,10,11,22.40
2017,08,22,10,12,22.40
2017,08,22,10,13,22.40
2017,08,22,10,14,22.40
2017,08,22,10,15,22.40
2017,08,22,10,16,22.30
2017,08,22,10,17,22.30
2017,08,22,10,18,22.30
2017,08,22,10,19,22.20
2017,08,22,10,20,22.20
2017,08,22,10,21,22.20
2017,08,22,10,22,22.10
2017,08,22,10,23,22.10
2017,08,22,10,24,22.10
2017,08,22,10,25,22.00
2017,08,22,10,26,22.00
2017,08,22,10,27,22.00
2017,08,22,10,28,22.00
2017,08,22,10,29,21.90
2017,08,22,10,30,21.90
2017,08,22,10,31,22.00
2017,08,22,10,32,22.10
2017,08,22,10,33,22.20
2017,08,22,10,34,22.30
2017,08,22,10,35,22.30
2017,08,22,10,36,22.30
2017,08,22,10,37,22.20
2017,08,22,10,38,22.10
2017,08,22,10,39,22.10
2017,08,22,10,40,22.00
2017,08,22,10,41,22.00
2017,08,22,10,42,21.90
2017,08,22,10,43,21.90
2017,08,22,10,44,22.00
2017,08,22,10,45,22.00
2017,08,22,10,46,22.10
2017,08,22,10,47,22.10
2017,08,22,10,48,22.20
2017,08,22,10,49,22.20
2017,08,22,10,50,22.30
2017,08,22,10,51,22.30
2017,08,22,10,52,22.30
2017,08,22,10,53,22.40
2017,08,22,10,54,22.30
2017,08,22,10,55,22.30
2017,08,22,10,56,22.30
2017,08,22,10,57,22.30
2017,08,22,10,58,22.40
2017,08,22,10,59,22.50
2017,08,22,11,00,22.60
2017,08,22,11,01,22.70
2017,08,22,11,02,22.70
2017,08,22,11,03,22.70
2017,08,22,11,04,22.60
2017,08,22,11,05,22.60
2017,08,22,11,06,22.60
2017,08,22,11,07,22.60
2017,08,22,11,08,22.60
2017,08,22,11,09,22.60
2017,08,22,11,10,22.50
2017,08,22,11,11,22.60
2017,08,22,11,12,22.60
2017,08,22,11,13,22.60
2017,08,22,11,14,22.60
2017,08,22,11,15,22.60
2017,08,22,11,16,22.60
2017,08,22,11,17,22.60
2017,08,22,11,18,22.60
2017,08,22,11,19,22.50
2017,08,22,11,20,22.50
2017,08,22,11,21,22.50
2017,08,22,11,22,22.60
2017,08,22,11,23,22.60
2017,08,22,11,24,22.60
2017,08,22,11,25,22.60
2017,08,22,11,26,22.60
2017,08,22,11,27,22.60
2017,08,22,11,28,22.70
2017,08,22,11,29,22.80
2017,08,22,11,30,22.80
2017,08,22,11,31,22.80
2017,08,22,11,32,22.90
2017,08,22,11,33,22.90
2017,08,22,11,34,23.00
2017,08,22,11,35,23.10
2017,08,22,11,36,23.20
2017,08,22,11,37,23.30
2017,08,22,11,38,23.40
2017,08,22,11,39,23.50
2017,08,22,11,40,23.50
2017,08,22,11,41,23.60
2017,08,22,11,42,23.60
2017,08,22,11,43,23.70
2017,08,22,11,44,23.70
2017,08,22,11,45,23.70
2017,08,22,11,46,23.70
2017,08,22,11,47,23.80
2017,08,22,11,48,23.80
2017,08,22,11,49,23.90
2017,08,22,11,50,23.90
2017,08,22,11,51,23.90
2017,08,22,11,52,23.90
2017,08,22,11,53,23.90
2017,08,22,11,54,23.90
2017,08,22,11,55,23.90
2017,08,22,11,56,23.90
2017,08,22,11,57,23.90
2017,08,22,11,58,23.90
2017,08,22,11,59,23.90
2017,08,22,12,00,23.90
2017,08,22,12,01,23.90
2017,08,22,12,02,23.90
2017,08,22,12,03,23.90
2017,08,22,12,04,23.90
2017,08,22,12,05,23.90
2017,08,22,12,06,24.00
2017,08,22,12,07,24.00
2017,08,22,12,08,24.10
2017,08,22,12,09,24.20
2017,08,22,12,10,24.30
2017,08,22,12,11,24.30
2017,08,22,12,12,24.40
2017,08,22,12,13,24.40
2017,08,22,12,14,24.50
2017,08,22,12,15,24.60
2017,08,22,12,16,24.70
2017,08,22,12,17,24.80
2017,08,22,12,18,24.90
2017,08,22,12,19,24.90
2017,08,22,12,20,24.90
2017,08,22,12,21,24.90
2017,08,22,12,22,24.90
2017,08,22,12,23,24.90
2017,08,22,12,24,24.90
2017,08,22,12,25,25.00
2017,08,22,12,26,25.10
2017,08,22,12,27,25.10
2017,08,22,12,28,25.10
2017,08,22,12,29,25.20
2017,08,22,12,30,25.20
2017,08,22,12,31,25.20
2017,08,22,12,32,25.10
2017,08,22,12,33,25.10
2017,08,22,12,34,25.10
2017,08,22,12,35,25.20
2017,08,22,12,36,25.30
2017,08,22,12,37,25.30
2017,08,22,12,38,25.30
2017,08,22,12,39,25.40
2017,08,22,12,40,25.50
2017,08,22,12,41,25.70
2017,08,22,12,42,25.70
2017,08,22,12,43,25.60
2017,08,22,12,44,25.60
2017,08,22,12,45,25.60
2017,08,22,12,46,25.60
2017,08,22,12,47,25.60
2017,08,22,12,48,25.70
2017,08,22,12,49,25.90
2017,08,22,12,50,25.90
2017,08,22,12,51,25.90
2017,08,22,12,52,26.00
2017,08,22,12,53,26.10
2017,08,22,12,54,26.20
2017,08,22,12,55,26.20
2017,08,22,12,56,26.20
2017,08,22,12,57,26.20
2017,08,22,12,58,26.30
2017,08,22,12,59,26.40
2017,08,22,13,00,26.40
2017,08,22,13,01,26.40
2017,08,22,13,02,26.50
2017,08,22,13,03,26.60
2017,08,22,13,04,26.60
2017,08,22,13,05,26.70
2017,08,22,13,06,26.70
2017,08,22,13,07,26.70
2017,08,22,13,08,26.80
2017,08,22,13,09,26.90
2017,08,22,13,10,26.90
2017,08,22,13,11,26.90
2017,08,22,13,12,27.00
2017,08,22,13,13,27.00
2017,08,22,13,14,27.00
2017,08,22,13,15,27.10
2017,08,22,13,16,27.10
2017,08,22,13,17,27.10
2017,08,22,13,18,27.20
2017,08,22,13,19,27.30
2017,08,22,13,20,27.30
2017,08,22,13,21,27.40
2017,08,22,13,22,27.50
2017,08,22,13,23,27.60
2017,08,22,13,24,27.60
2017,08,22,13,25,27.50
2017,08,22,13,26,27.40
2017,08,22,13,27,27.40
2017,08,22,13,28,27.40
2017,08,22,13,29,27.40
2017,08,22,13,30,27.40
2017,08,22,13,31,27.50
2017,08,22,13,32,27.60
2017,08,22,13,33,27.60
2017,08,22,13,34,27.70
2017,08,22,13,35,27.70
2017,08,22,13,36,27.70
2017,08,22,13,37,27.70
2017,08,22,13,38,27.70
2017,08,22,13,39,27.70
2017,08,22,13,40,27.70
2017,08,22,13,41,27.70
2017,08,22,13,42,27.50
2017,08,22,13,43,27.40
2017,08,22,13,44,27.40
2017,08,22,13,45,27.40
2017,08,22,13,46,27.50
2017,08,22,13,47,27.70
2017,08,22,13,48,27.80
2017,08,22,13,49,28.00
2017,08,22,13,50,28.10
2017,08,22,13,51,28.10
2017,08,22,13,52,28.10
2017,08,22,13,53,28.00
2017,08,22,13,54,28.00
2017,08,22,13,55,28.10
2017,08,22,13,56,28.10
2017,08,22,13,57,28.00
2017,08,22,13,58,27.90
2017,08,22,13,59,27.90
2017,08,22,14,00,27.80
2017,08,22,14,01,27.80
2017,08,22,14,02,27.90
2017,08,22,14,03,27.80
2017,08,22,14,04,27.80
2017,08,22,14,05,27.80
2017,08,22,14,06,27.70
2017,08,22,14,07,27.70
2017,08,22,14,08,27.70
2017,08,22,14,09,27.70
2017,08,22,14,10,27.70
2017,08,22,14,11,27.70
2017,08,22,14,12,27.80
2017,08,22,14,13,27.80
2017,08,22,14,14,27.80
2017,08,22,14,15,27.80
2017,08,22,14,16,27.90
2017,08,22,14,17,27.90
2017,08,22,14,18,27.80
2017,08,22,14,19,27.80
2017,08,22,14,20,27.80
2017,08,22,14,21,27.80
2017,08,22,14,22,27.80
2017,08,22,14,23,27.80
2017,08,22,14,24,27.80
2017,08,22,14,25,27.70
2017,08,22,14,26,27.80
2017,08,22,14,27,27.80
2017,08,22,14,28,27.80
2017,08,22,14,29,27.90
2017,08,22,14,30,28.10
2017,08,22,14,31,28.20
2017,08,22,14,32,28.40
2017,08,22,14,33,28.50
2017,08,22,14,34,28.60
2017,08,22,14,35,28.70
2017,08,22,14,36,28.80
2017,08,22,14,37,28.70
2017,08,22,14,38,28.60
2017,08,22,14,39,28.50
2017,08,22,14,40,28.40
2017,08,22,14,41,28.30
2017,08,22,14,42,28.30
2017,08,22,14,43,28.30
2017,08,22,14,44,28.30
2017,08,22,14,45,28.40
2017,08,22,14,46,28.40
2017,08,22,14,47,28.50
2017,08,22,14,48,28.60
2017,08,22,14,49,28.60
2017,08,22,14,50,28.70
2017,08,22,14,51,28.80
2017,08,22,14,52,28.90
2017,08,22,14,53,28.90
2017,08,22,14,54,28.90
2017,08,22,14,55,28.80
2017,08,22,14,56,28.80
2017,08,22,14,57,28.80
2017,08,22,14,58,28.70
2017,08,22,14,59,28.70
2017,08,22,15,00,28.70
2017,08,22,15,01,28.60
2017,08,22,15,02,28.60
2017,08,22,15,03,28.70
2017,08,22,15,04,28.80
2017,08,22,15,05,28.80
2017,08,22,15,06,28.80
2017,08,22,15,07,28.80
2017,08,22,15,08,28.70
2017,08,22,15,09,28.70
2017,08,22,15,10,28.70
2017,08,22,15,11,28.70
2017,08,22,15,12,28.80
2017,08,22,15,13,28.90
2017,08,22,15,14,29.00
2017,08,22,15,15,29.00
2017,08,22,15,16,29.00
2017,08,22,15,17,29.10
2017,08,22,15,18,29.10
2017,08,22,15,19,29.20
2017,08,22,15,20,29.20
2017,08,22,15,21,29.20
2017,08,22,15,22,29.30
2017,08,22,15,23,29.30
2017,08,22,15,24,29.30
2017,08,22,15,25,29.40
2017,08,22,15,26,29.50
2017,08,22,15,27,29.50
2017,08,22,15,28,29.40
2017,08,22,15,29,29.30
2017,08,22,15,30,29.20
2017,08,22,15,31,29.00
2017,08,22,15,32,28.90
2017,08,22,15,33,28.90
2017,08,22,15,34,28.80
2017,08,22,15,35,28.70
2017,08,22,15,36,28.50
2017,08,22,15,37,28.40
2017,08,22,15,38,28.30
2017,08,22,15,39,28.30
2017,08,22,15,40,28.20
2017,08,22,15,41,28.30
2017,08,22,15,42,28.40
2017,08,22,15,43,28.40
2017,08,22,15,44,28.40
2017,08,22,15,45,28.40
2017,08,22,15,46,28.40
2017,08,22,15,47,28.40
2017,08,22,15,48,28.50
2017,08,22,15,49,28.50
2017,08,22,15,50,28.60
2017,08,22,15,51,28.50
2017,08,22,15,52,28.40
2017,08,22,15,53,28.30
2017,08,22,15,54,28.20
2017,08,22,15,55,28.20
2017,08,22,15,56,28.20
2017,08,22,15,57,28.20
2017,08,22,15,58,28.30
2017,08,22,15,59,28.30
2017,08,22,16,00,28.40
2017,08,22,16,01,28.40
2017,08,22,16,02,28.40
2017,08,22,16,03,28.40
2017,08,22,16,04,28.40
2017,08,22,16,05,28.50
2017,08,22,16,06,28.50
2017,08,22,16,07,28.60
2017,08,22,16,08,28.60
2017,08,22,16,09,28.70
2017,08,22,16,10,28.60
2017,08,22,16,11,28.60
2017,08,22,16,12,28.60
2017,08,22,16,13,28.60
2017,08,22,16,14,28.70
2017,08,22,16,15,28.70
2017,08,22,16,16,28.70
2017,08,22,16,17,28.70
2017,08,22,16,18,28.70
2017,08,22,16,19,28.60
2017,08,22,16,20,28.60
2017,08,22,16,21,28.50
2017,08,22,16,22,28.50
2017,08,22,16,23,28.50
2017,08,22,16,24,28.60
2017,08,22,16,25,28.60
2017,08,22,16,26,28.70
2017,08,22,16,27,28.80
2017,08,22,16,28,28.80
2017,08,22,16,29,28.80
2017,08,22,16,30,28.70
2017,08,22,16,31,28.80
2017,08,22,16,32,28.80
2017,08,22,16,33,28.90
2017,08,22,16,34,29.10
2017,08,22,16,35,29.10
2017,08,22,16,36,29.20
2017,08,22,16,37,29.20
2017,08,22,16,38,29.30
2017,08,22,16,39,29.30
2017,08,22,16,40,29.40
2017,08,22,16,41,29.40
2017,08,22,16,42,29.40
2017,08,22,16,43,29.40
2017,08,22,16,44,29.40
2017,08,22,16,45,29.40
2017,08,22,16,46,29.40
2017,08,22,16,47,29.40
2017,08,22,16,48,29.50
2017,08,22,16,49,29.40
2017,08,22,16,50,29.40
2017,08,22,16,51,29.40
2017,08,22,16,52,29.30
2017,08,22,16,53,29.20
2017,08,22,16,54,29.10
2017,08,22,16,55,29.10
2017,08,22,16,56,29.10
2017,08,22,16,57,29.20
2017,08,22,16,58,29.20
2017,08,22,16,59,29.20
2017,08,22,17,00,29.20
2017,08,22,17,01,29.20
2017,08,22,17,02,29.20
2017,08,22,17,03,29.20
2017,08,22,17,04,29.20
2017,08,22,17,05,29.20
2017,08,22,17,06,29.10
2017,08,22,17,07,29.10
2017,08,22,17,08,29.10
2017,08,22,17,09,29.00
2017,08,22,17,10,28.80
2017,08,22,17,11,28.70
2017,08,22,17,12,28.60
2017,08,22,17,13,28.60
2017,08,22,17,14,28.40
2017,08,22,17,15,28.40
2017,08,22,17,16,28.30
2017,08,22,17,17,28.20
2017,08,22,17,18,28.20
2017,08,22,17,19,28.20